GW0206 Weather Reports


time (UTC)temp
C
wind
direction
speed
KPH
gust
KPH
rain 1hr
cm
rain 24hr
cm
rain mn
cm
humidity
%
barometer
mb
20260506161004 12 169 3.2 14.5 0.00 3.15 1.70 75 1011.1
20260506160508 12 124 1.6 12.9 0.00 3.15 1.70 79 1011.0
20260506160006 11 151 1.6 12.9 0.00 3.15 1.70 80 1011.0
20260506155502 11 163 0.0 17.7 0.00 3.15 1.70 79 1011.2
20260506155003 11 174 6.4 17.7 0.00 3.15 1.70 75 1011.2
20260506154508 11 129 6.4 14.5 0.00 3.15 1.70 78 1011.2
20260506154004 11 190 3.2 14.5 0.00 3.15 1.70 78 1011.1
20260506153503 11 183 1.6 14.5 0.00 3.15 1.70 79 1010.9
20260506153012 10 194 6.4 14.5 0.00 3.15 1.70 82 1010.9
20260506152506 10 216 4.8 16.1 0.00 3.15 1.70 83 1010.7
20260506152004 10 204 4.8 16.1 0.00 3.15 1.70 84 1010.7
20260506151514 10 140 3.2 11.3 0.00 3.15 1.70 84 1010.8
20260506151005 9 179 1.6 12.9 0.00 3.15 1.70 86 1010.8
20260506150504 9 122 3.2 16.1 0.00 3.15 1.70 87 1010.8
20260506150013 9 172 4.8 16.1 0.00 3.15 1.70 87 1010.8
20260506145504 9 159 3.2 11.3 0.00 3.15 1.70 89 1010.7
20260506145006 8 167 1.6 11.3 0.00 3.15 1.70 90 1010.7
20260506144512 8 189 6.4 20.9 0.00 3.15 1.70 90 1010.6
20260506144002 8 174 8.0 20.9 0.00 3.15 1.70 90 1010.6
20260506143502 8 147 3.2 17.7 0.00 3.15 1.70 92 1010.4
20260506143011 8 118 1.6 17.7 0.00 3.15 1.70 92 1010.2
20260506142503 8 161 3.2 11.3 0.00 3.15 1.70 94 1010.3
20260506142005 8 157 4.8 11.3 0.00 3.15 1.70 94 1010.2
20260506141515 8 142 3.2 9.7 0.00 3.15 1.70 95 1010.2
20260506141011 8 164 3.2 12.9 0.00 3.15 1.70 95 1010.2
20260506140505 7 207 6.4 12.9 0.00 3.15 1.70 95 1010.0
20260506140016 7 121 3.2 12.9 0.00 3.15 1.70 95 1010.1
20260506135506 7 175 1.6 11.3 0.00 3.15 1.70 95 1010.2
20260506135005 7 153 3.2 11.3 0.00 3.15 1.70 96 1010.3
20260506134516 7 177 3.2 11.3 0.00 3.15 1.70 96 1010.2
20260506134005 7 144 1.6 9.7 0.00 3.15 1.70 96 1010.1
20260506133507 7 103 1.6 11.3 0.00 3.15 1.70 96 1009.9
20260506133011 7 145 1.6 11.3 0.00 3.15 1.70 96 1009.8
20260506132504 7 205 3.2 9.7 0.00 3.15 1.70 96 1009.6
20260506132006 7 171 3.2 9.7 0.00 3.15 1.70 97 1009.6
20260506131511 7 192 3.2 9.7 0.00 3.15 1.70 96 1009.4
20260506131004 7 194 3.2 9.7 0.00 3.15 1.70 97 1009.5
20260506130506 7 192 1.6 6.4 0.00 3.15 1.70 97 1009.4
20260506130018 7 113 0.0 6.4 0.00 3.15 1.70 97 1009.5
20260506125504 7 184 1.6 11.3 0.00 3.15 1.70 96 1009.4
20260506125006 7 155 0.0 11.3 0.00 3.15 1.70 96 1009.4
20260506124523 7 169 1.6 9.7 0.00 3.15 1.70 96 1009.3
20260506124006 7 207 1.6 8.0 0.00 3.15 1.70 96 1009.3
20260506123505 7 171 1.6 11.3 0.00 3.15 1.70 96 1009.4
20260506123019 7 190 1.6 11.3 0.00 3.15 1.70 97 1009.3
20260506122506 7 196 1.6 9.7 0.00 3.15 1.70 97 1009.1
20260506122008 7 161 1.6 11.3 0.00 3.15 1.70 97 1008.9
20260506121520 7 194 3.2 11.3 0.00 3.15 1.70 97 1008.6
20260506121007 7 199 4.8 9.7 0.00 3.15 1.70 97 1008.5
20260506120503 7 178 1.6 9.7 0.00 3.15 1.70 97 1008.7
20260506120022 7 165 3.2 9.7 0.00 3.15 1.70 97 1008.7
20260506115509 7 186 0.0 9.7 0.00 3.15 1.70 97 1008.7
20260506115008 7 189 0.0 9.7 0.00 3.15 1.70 97 1008.9
20260506114519 7 142 0.0 8.0 0.00 3.15 1.70 97 1008.9
20260506114004 7 187 0.0 6.4 0.00 3.15 1.70 97 1008.7
20260506113506 7 190 0.0 9.7 0.00 3.15 1.70 96 1008.5
20260506113023 7 129 0.0 9.7 0.00 3.15 1.70 97 1008.6
20260506112510 7 207 1.6 6.4 0.00 3.15 1.70 96 1008.4
20260506112007 7 226 0.0 8.0 0.00 3.15 1.70 96 1008.2
20260506111523 7 198 0.0 8.0 0.00 3.15 1.70 96 1008.5
20260506111009 7 198 1.6 6.4 0.00 3.15 1.70 96 1008.8
20260506110504 7 177 0.0 8.0 0.00 3.15 1.70 96 1008.9
20260506110023 7 171 1.6 9.7 0.03 3.15 1.70 97 1008.3
20260506105512 7 162 3.2 12.9 0.03 3.15 1.70 97 1008.2
20260506105009 6 145 1.6 12.9 0.05 3.15 1.70 97 1008.3
20260506104515 6 167 0.0 8.0 0.05 3.15 1.70 96 1007.8
20260506104010 6 182 1.6 6.4 0.08 3.15 1.70 96 1007.5
20260506103508 6 192 1.6 8.0 0.10 3.15 1.70 96 1007.1
20260506103025 6 217 3.2 8.0 0.10 3.15 1.70 96 1006.9
20260506102507 6 221 1.6 11.3 0.13 3.15 1.70 96 1007.0
20260506102010 6 203 1.6 11.3 0.15 3.15 1.70 96 1007.2
20260506101524 6 222 3.2 11.3 0.18 3.15 1.70 96 1007.0
20260506101007 6 225 1.6 8.0 0.20 3.15 1.70 96 1006.9
20260506100508 6 240 1.6 9.7 0.23 3.15 1.70 96 1007.0
20260506100027 6 218 3.2 11.3 0.23 3.12 1.68 96 1007.2
20260506095510 6 224 4.8 11.3 0.25 3.12 1.68 96 1007.4
20260506095006 6 172 3.2 12.9 0.23 3.10 1.65 96 1007.7
20260506094528 6 203 3.2 12.9 0.25 3.10 1.65 96 1007.7
20260506094005 6 157 1.6 12.9 0.23 3.07 1.63 96 1007.9
20260506093505 6 206 3.2 11.3 0.20 3.05 1.60 96 1007.9
20260506093030 6 182 1.6 11.3 0.20 3.05 1.60 96 1007.9
20260506092503 6 173 3.2 12.9 0.20 3.02 1.57 96 1007.8
20260506092004 6 169 3.2 12.9 0.18 2.97 1.55 96 1007.8
20260506091526 6 196 3.2 8.0 0.18 2.95 1.52 96 1007.6
20260506091003 6 215 3.2 8.0 0.18 2.95 1.47 96 1007.8
20260506090502 6 173 0.0 9.7 0.18 2.92 1.47 96 1007.7
20260506090019 6 189 3.2 14.5 0.20 2.90 1.45 96 1007.7
20260506085503 6 171 3.2 14.5 0.23 2.87 1.42 96 1007.6
20260506085003 6 198 3.2 11.3 0.28 2.87 1.42 96 1007.5
20260506084530 6 193 4.8 16.1 0.30 2.84 1.40 96 1007.6
20260506084004 6 180 4.8 16.1 0.33 2.84 1.40 95 1007.5
20260506083504 6 170 9.7 16.1 0.36 2.84 1.40 95 1007.4
20260506083010 6 214 8.0 17.7 0.41 2.84 1.40 95 1007.2
20260506082504 6 203 9.7 20.9 0.41 2.82 1.37 95 1007.4
20260506082009 6 201 11.3 20.9 0.43 2.82 1.37 95 1007.4
20260506081505 6 149 4.8 14.5 0.43 2.79 1.32 95 1007.4
20260506081004 7 211 4.8 19.3 0.43 2.77 1.32 95 1007.4
20260506080506 7 176 4.8 19.3 0.43 2.74 1.30 95 1007.3
20260506073504 7 148 4.8 17.7 0.33 2.49 1.04 95 1007.1
20260506073012 7 192 3.2 14.5 0.30 2.44 0.99 96 1007.1
20260506072506 8 185 4.8 16.1 0.30 2.41 0.97 95 1007.0
20260506072003 8 207 8.0 16.1 0.30 2.39 0.94 96 1006.8
20260506071517 8 187 3.2 17.7 0.28 2.36 0.91 96 1006.8
20260506071008 8 162 3.2 17.7 0.30 2.34 0.89 96 1006.8
20260506070508 8 195 6.4 14.5 0.33 2.31 0.86 96 1006.8
20260506062504 8 208 1.6 6.4 0.30 2.11 0.66 96 1007.2
20260506062005 8 193 3.2 6.4 0.30 2.08 0.64 96 1007.2
20260506061522 8 203 0.0 9.7 0.33 2.08 0.64 96 1007.3
20260506061004 8 209 3.2 9.7 0.30 2.03 0.58 96 1007.4
20260506060505 8 198 4.8 8.0 0.28 1.98 0.53 96 1007.4
20260506051004 8 201 4.8 9.7 0.20 1.73 0.28 96 1007.9
20260506050505 8 233 3.2 14.5 0.20 1.70 0.25 95 1007.9
20260506045006 8 205 3.2 11.3 0.25 1.68 0.23 95 1008.1
20260506044533 8 169 4.8 9.7 0.25 1.65 0.20 95 1008.2
20260506044008 8 210 4.8 11.3 0.25 1.63 0.18 95 1008.2
20260506043513 8 211 3.2 11.3 0.25 1.63 0.18 95 1008.2
20260506043023 8 205 3.2 14.5 0.25 1.60 0.15 95 1008.2
20260506042509 8 190 4.8 16.1 0.25 1.57 0.13 95 1008.3
20260506042010 8 212 6.4 16.1 0.23 1.55 0.10 95 1008.3
20260506041527 8 192 6.4 16.1 0.25 1.55 0.10 95 1008.3
20260506041006 9 200 6.4 11.3 0.23 1.52 0.08 95 1008.3
20260506040510 9 188 3.2 16.1 0.20 1.47 0.05 95 1008.3
20260506040033 9 205 6.4 16.1 0.18 1.45 0.00 95 1008.2
20260506035505 9 217 8.0 14.5 0.15 1.42 1.42 95 1008.2
20260506035006 9 201 8.0 14.5 0.18 1.42 1.42 95 1008.1
20260506034525 9 220 8.0 16.1 0.15 1.40 1.40 95 1008.1
20260506034008 9 195 8.0 16.1 0.20 1.37 1.37 95 1008.2
20260506033507 9 209 6.4 12.9 0.20 1.37 1.37 95 1008.3
20260506033020 9 223 8.0 14.5 0.20 1.32 1.32 95 1008.3
20260506032508 9 233 6.4 14.5 0.20 1.32 1.32 95 1008.3
20260506032003 9 238 8.0 14.5 0.25 1.32 1.32 95 1008.2
20260506031506 9 218 8.0 25.7 0.30 1.30 1.30 95 1008.3
20260506031003 9 220 16.1 25.7 0.41 1.30 1.30 94 1008.3
20260506030502 10 186 9.7 19.3 0.48 1.30 1.30 94 1008.5
20260506030004 10 217 12.9 19.3 0.48 1.27 1.27 94 1008.6
20260506025505 10 198 4.8 12.9 0.51 1.27 1.27 94 1008.7
20260506025004 10 189 3.2 12.9 0.48 1.24 1.24 95 1008.8
20260506024502 10 145 3.2 11.3 0.51 1.24 1.24 95 1008.8
20260506024002 10 173 3.2 11.3 0.43 1.17 1.17 95 1008.8
20260506023502 10 232 3.2 14.5 0.46 1.17 1.17 94 1008.5
20260506023007 10 226 4.8 14.5 0.43 1.14 1.14 93 1008.6
20260506022502 11 242 4.8 12.9 0.41 1.12 1.12 93 1008.7
20260506022003 11 179 4.8 14.5 0.38 1.07 1.07 93 1008.6
20260506021503 11 196 4.8 14.5 0.30 0.99 0.99 93 1008.0
20260506021004 12 161 3.2 14.5 0.20 0.89 0.89 94 1008.2
20260506020507 12 281 3.2 14.5 0.13 0.81 0.81 94 1007.9
20260506020006 12 265 4.8 12.9 0.10 0.79 0.79 94 1007.8
20260506015503 13 236 6.4 12.9 0.10 0.76 0.76 94 1007.8
20260506015003 13 241 3.2 4.8 0.10 0.76 0.76 95 1007.8
20260506014506 13 150 0.0 0.0 0.08 0.74 0.74 95 1007.8
20260506014004 13 150 0.0 0.0 0.08 0.74 0.74 95 1007.8
20260506013505 13 150 0.0 0.0 0.05 0.71 0.71 95 1007.8
20260506013004 13 150 0.0 0.0 0.08 0.71 0.71 95 1007.8
20260506012503 13 150 0.0 1.6 0.08 0.71 0.71 95 1007.8
20260506012003 13 150 0.0 3.2 0.05 0.69 0.69 95 1007.7
20260506011512 13 150 0.0 3.2 0.08 0.69 0.69 95 1007.7
20260506011005 13 150 0.0 0.0 0.08 0.69 0.69 95 1007.6
20260506010503 13 150 0.0 0.0 0.08 0.69 0.69 95 1007.7
20260506010006 13 150 0.0 0.0 0.08 0.69 0.69 95 1007.6
20260506005503 13 150 0.0 0.0 0.08 0.66 0.66 94 1007.6
20260506005003 13 150 0.0 0.0 0.10 0.66 0.66 94 1007.6
20260506004516 13 150 0.0 0.0 0.10 0.66 0.66 94 1007.7
20260506004003 13 150 0.0 0.0 0.15 0.66 0.66 94 1007.7
20260506003503 13 150 0.0 0.0 0.20 0.66 0.66 94 1007.7
20260506003006 13 150 0.0 0.0 0.20 0.64 0.64 94 1007.7
20260506002504 13 150 0.0 0.0 0.28 0.64 0.64 94 1007.7
20260506002003 13 150 0.0 0.0 0.41 0.64 0.64 94 1007.8
20260506001504 13 150 0.0 1.6 0.51 0.61 0.61 94 1007.7
20260506001004 13 150 0.0 1.6 0.53 0.61 0.61 94 1007.7
20260506000502 13 150 0.0 1.6 0.53 0.61 0.61 93 1007.8
20260506000003 13 150 0.0 1.6 0.53 0.61 0.61 93 1007.8
20260505235502 13 150 0.0 1.6 0.53 0.58 0.58 93 1007.8
20260505235003 13 145 0.0 9.7 0.51 0.56 0.56 93 1007.9
20260505234509 13 161 1.6 11.3 0.51 0.56 0.56 93 1007.9
20260505234007 13 106 0.0 12.9 0.46 0.51 0.51 92 1008.0
20260505233504 13 99 4.8 12.9 0.41 0.46 0.46 92 1008.0
20260505233020 13 120 0.0 19.3 0.38 0.43 0.43 91 1008.1
20260505232505 14 140 9.7 22.5 0.30 0.36 0.36 90 1008.2
20260505232003 15 153 8.0 22.5 0.18 0.23 0.23 90 1008.3
20260505231520 15 113 6.4 17.7 0.05 0.10 0.10 89 1008.3
20260505231007 15 156 0.0 8.0 0.03 0.08 0.08 88 1007.6
20260505230503 15 167 0.0 8.0 0.03 0.08 0.08 88 1007.4
20260505230009 15 166 1.6 8.0 0.03 0.08 0.08 88 1007.3
20260505225510 15 173 1.6 8.0 0.00 0.05 0.05 88 1007.3
20260505225003 15 195 0.0 3.2 0.00 0.05 0.05 87 1007.2
20260505224505 15 195 0.0 6.4 0.00 0.05 0.05 88 1007.2
20260505224003 15 195 1.6 6.4 0.00 0.05 0.05 88 1007.3
20260505223504 15 190 0.0 6.4 0.00 0.05 0.05 88 1007.3
20260505223005 15 190 0.0 6.4 0.00 0.05 0.05 87 1007.3
20260505222505 15 188 1.6 8.0 0.00 0.05 0.05 87 1007.3
20260505222007 16 130 0.0 8.0 0.00 0.05 0.05 87 1007.5
20260505221513 16 177 3.2 8.0 0.00 0.05 0.05 86 1007.4
20260505221003 16 159 0.0 8.0 0.00 0.05 0.05 86 1007.4
20260505220505 16 186 3.2 9.7 0.00 0.05 0.05 87 1007.5
20260505220040 16 162 1.6 9.7 0.00 0.05 0.05 86 1007.6
20260505215510 16 142 0.0 8.0 0.00 0.05 0.05 85 1007.7
20260505215004 16 124 0.0 12.9 0.00 0.05 0.05 85 1007.6
20260505214525 16 161 3.2 12.9 0.00 0.05 0.05 85 1007.6
20260505214010 16 146 1.6 11.3 0.00 0.05 0.05 86 1007.6
20260505213503 16 137 3.2 12.9 0.00 0.05 0.05 86 1007.5
20260505213006 16 134 4.8 22.5 0.00 0.05 0.05 85 1007.5
20260505212504 16 110 4.8 22.5 0.00 0.05 0.05 85 1007.5
20260505212004 16 104 9.7 19.3 0.00 0.05 0.05 85 1007.5
20260505211510 16 99 12.9 19.3 0.03 0.05 0.05 85 1007.5
20260505211005 16 76 8.0 16.1 0.03 0.05 0.05 85 1007.4
20260505210504 16 98 6.4 19.3 0.05 0.05 0.05 86 1007.5
20260505210017 16 63 9.7 22.5 0.05 0.05 0.05 86 1007.5
20260505205507 16 53 9.7 22.5 0.05 0.05 0.05 85 1007.5
20260505205008 16 109 9.7 22.5 0.05 0.05 0.05 86 1007.5
20260505204523 16 116 11.3 25.7 0.05 0.05 0.05 85 1007.5
20260505204002 16 39 9.7 25.7 0.05 0.05 0.05 86 1007.5
20260505203506 16 56 11.3 20.9 0.05 0.05 0.05 87 1007.5
20260505203024 16 75 16.1 20.9 0.05 0.05 0.05 86 1007.5
20260505202508 16 20 11.3 20.9 0.05 0.05 0.05 84 1007.6
20260505202004 16 28 8.0 20.9 0.05 0.05 0.05 83 1007.7
20260505201518 17 103 9.7 24.1 0.03 0.03 0.03 80 1007.8
20260505201004 17 75 14.5 24.1 0.03 0.03 0.03 77 1007.8
20260505200501 18 58 9.7 22.5 0.00 0.00 0.00 74 1007.8
20260505200012 18 50 14.5 22.5 0.00 0.00 0.00 70 1007.6
20260505195507 18 45 9.7 19.3 0.00 0.00 0.00 70 1007.5
20260505195007 18 23 8.0 17.7 0.00 0.00 0.00 68 1007.6
20260505194519 19 148 11.3 20.9 0.00 0.00 0.00 67 1007.6
20260505194011 19 84 11.3 20.9 0.00 0.00 0.00 67 1007.6
20260505193508 19 102 8.0 17.7 0.00 0.00 0.00 67 1007.6
20260505193033 19 91 9.7 16.1 0.00 0.00 0.00 67 1007.7
20260505192506 19 61 8.0 19.3 0.00 0.00 0.00 69 1007.6
20260505192008 19 94 8.0 20.9 0.00 0.00 0.00 69 1007.7
20260505191526 18 90 11.3 20.9 0.00 0.00 0.00 68 1007.7
20260505191009 18 102 9.7 19.3 0.00 0.00 0.00 68 1007.7
20260505190506 18 93 11.3 17.7 0.00 0.00 0.00 69 1007.8
20260505190025 18 134 4.8 17.7 0.00 0.00 0.00 70 1007.9
20260505185502 18 57 6.4 22.5 0.00 0.00 0.00 69 1008.1
20260505185003 18 84 11.3 22.5 0.00 0.00 0.00 69 1008.2
20260505184515 18 115 8.0 20.9 0.00 0.00 0.00 70 1008.2
20260505184006 18 90 12.9 27.4 0.00 0.00 0.00 69 1008.2
20260505183507 18 103 14.5 27.4 0.00 0.00 0.00 69 1008.4
20260505183019 18 94 11.3 25.7 0.00 0.00 0.00 69 1008.6
20260505182506 18 72 14.5 33.8 0.00 0.00 0.00 68 1008.7
20260505182002 18 126 16.1 33.8 0.00 0.00 0.00 69 1008.6
20260505181504 18 103 16.1 37.0 0.00 0.00 0.00 68 1008.5
20260505181003 18 67 20.9 37.0 0.00 0.00 0.00 67 1008.4
20260505180504 18 47 19.3 38.6 0.00 0.00 0.00 67 1008.3
20260505180008 18 33 22.5 38.6 0.00 0.00 0.00 67 1008.2
20260505175503 19 88 17.7 33.8 0.00 0.00 0.00 67 1008.2
20260505175003 19 59 16.1 37.0 0.00 0.00 0.00 66 1008.0
20260505174508 19 34 14.5 37.0 0.00 0.00 0.00 67 1008.0
20260505174006 19 140 16.1 37.0 0.00 0.00 0.00 66 1007.9
20260505173506 20 60 16.1 37.0 0.00 0.00 0.00 66 1008.0
20260505173002 19 37 24.1 37.0 0.00 0.00 0.00 66 1007.9
20260505172504 19 36 19.3 40.2 0.00 0.00 0.00 65 1007.9
20260505172003 19 55 22.5 40.2 0.00 0.00 0.00 65 1008.0
20260505171503 19 55 25.7 40.2 0.00 0.00 0.00 65 1007.9
20260505171003 20 69 14.5 38.6 0.00 0.00 0.00 65 1008.0
20260505170502 20 103 19.3 38.6 0.00 0.00 0.00 64 1007.8
20260505170004 20 104 16.1 32.2 0.00 0.00 0.00 65 1007.8
20260505165503 20 100 11.3 40.2 0.00 0.00 0.00 65 1007.9
20260505165004 20 46 22.5 40.2 0.00 0.00 0.00 65 1008.0
20260505164508 20 73 16.1 38.6 0.00 0.00 0.00 64 1008.0
20260505164004 20 37 9.7 33.8 0.00 0.00 0.00 64 1008.0
20260505163504 20 115 16.1 33.8 0.00 0.00 0.00 65 1007.9
20260505163011 20 67 22.5 33.8 0.00 0.00 0.00 63 1007.9
20260505162507 20 89 19.3 32.2 0.00 0.00 0.00 63 1008.0
20260505162002 20 101 14.5 27.4 0.00 0.00 0.00 63 1007.9
20260505161506 21 85 16.1 27.4 0.00 0.00 0.00 63 1007.8